Change the Weather History Date:

Sunday, October 27, 2013

  Actual Average Record
Temperature  
Mean Temperature 39 °F 37 °F  
Max Temperature 59 °F 50 °F 70 °F (1983)
Min Temperature 19 °F 24 °F 3 °F (1919)
Degree Days  
Heating Degree Days 26 28  
Month to date heating degree days 709 633  
Since 1 July heating degree days 1084 1254  
Cooling Degree Days 0 0  
Month to date cooling degree days 0 0  
Year to date cooling degree days 104 81  
Moisture  
Dew Point 21 °F    
Average Humidity 55    
Maximum Humidity 88    
Minimum Humidity 21    
Precipitation  
Precipitation T in 0.02 in 0.80 in (1925)
Month to date precipitation 0.17 0.70  
Year to date precipitation 10.45 11.58  
Sea Level Pressure  
Sea Level Pressure 29.96 in    
Wind  
Wind Speed 6 mph (NNE)    
Max Wind Speed 24 mph    
Max Gust Speed 30 mph    
Visibility 10 miles    
Events      
T = Trace of Precipitation, MM = Missing Value Source: NWS Daily Summary

Daily Weather History Graph

Daily Weather History Graph

Search for Another Location

Airport or City:

Trip Planner

Search our weather history database for the weather conditions in past years. The results will help you decide how hot, cold, wet, or windy it might be!

Date:

Astronomy

Oct. 27, 2013 Rise Set
Actual Time 8:03 AM MDT 6:23 PM MDT
Civil Twilight 7:32 AM MDT 6:53 PM MDT
Nautical Twilight 6:57 AM MDT 7:28 PM MDT
Astronomical Twilight 6:23 AM MDT 8:03 PM MDT
Moon 12:43 AM MDT (10/27) 2:53 PM MDT (10/27)
Length of Visible Light 11h 20m
Length of Day
10h 19m
Last Quarter, 43% of the Moon is Illuminated
Oct 27
Last Quarter
Nov 3
New
Nov 9
First Quarter
Nov 17
Full
Nov 25
Last Quarter

Hourly Weather History & Observations

Time (MDT) Temp. Windchill Dew Point Humidity Pressure Visibility Wind Dir Wind Speed Gust Speed Precip Events Conditions
12:53 AM 26.1 °F - 19.0 °F 75% 30.14 in 10.0 mi Calm Calm - N/A   Clear
1:53 AM 23.0 °F - 19.0 °F 85% 30.10 in 10.0 mi Calm Calm - N/A   Clear
2:53 AM 23.0 °F - 18.0 °F 81% 30.06 in 10.0 mi Calm Calm - N/A   Clear
3:53 AM 21.0 °F - 16.0 °F 81% 30.04 in 10.0 mi Calm Calm - N/A   Clear
4:53 AM 21.0 °F - 17.1 °F 85% 30.00 in 10.0 mi Calm Calm - N/A   Clear
5:53 AM 19.9 °F - 16.0 °F 85% 30.01 in 10.0 mi Calm Calm - N/A   Clear
6:53 AM 19.9 °F - 16.0 °F 85% 30.00 in 10.0 mi Calm Calm - N/A   Clear
7:53 AM 21.0 °F 16.2 °F 17.1 °F 85% 30.00 in 10.0 mi SSE 3.5 mph - N/A   Clear
8:53 AM 23.0 °F 17.0 °F 18.0 °F 81% 30.02 in 10.0 mi South 4.6 mph - N/A   Clear
9:53 AM 28.9 °F - 21.9 °F 75% 30.00 in 10.0 mi Calm Calm - N/A   Clear
10:53 AM 39.0 °F - 24.1 °F 55% 29.93 in 10.0 mi Calm Calm - N/A   Clear
11:53 AM 46.9 °F - 24.1 °F 41% 29.88 in 10.0 mi Calm Calm - N/A   Clear
12:53 PM 55.0 °F - 23.0 °F 29% 29.81 in 10.0 mi Calm Calm - N/A   Clear
1:53 PM 57.9 °F - 21.0 °F 24% 29.79 in 10.0 mi Calm Calm - N/A   Clear
2:53 PM 57.9 °F - 21.0 °F 24% 29.77 in 10.0 mi SE 11.5 mph - N/A   Scattered Clouds
3:53 PM 57.0 °F - 18.0 °F 22% 29.78 in 10.0 mi ESE 13.8 mph 21.9 mph N/A   Clear
4:53 PM 55.0 °F - 19.9 °F 25% 29.78 in 10.0 mi East 18.4 mph 24.2 mph N/A   Clear
5:53 PM 46.9 °F - 24.1 °F 41% 29.84 in 10.0 mi Calm Calm - N/A   Clear
6:53 PM 41.0 °F 32.5 °F 25.0 °F 53% 29.93 in 10.0 mi NW 17.3 mph 24.2 mph N/A   Overcast
7:53 PM 37.9 °F 30.0 °F 25.0 °F 60% 30.00 in 10.0 mi NNW 12.7 mph 18.4 mph N/A   Mostly Cloudy
8:53 PM 35.1 °F 26.4 °F 24.1 °F 64% 30.04 in 10.0 mi NNW 12.7 mph 18.4 mph N/A   Partly Cloudy
9:53 PM 34.0 °F 25.0 °F 23.0 °F 64% 30.03 in 10.0 mi North 12.7 mph 20.7 mph N/A   Overcast
10:53 PM 33.1 °F 24.9 °F 21.9 °F 64% 30.01 in 10.0 mi North 10.4 mph - N/A   Overcast
11:53 PM 32.0 °F 24.2 °F 21.0 °F 64% 29.99 in 10.0 mi North 9.2 mph 19.6 mph N/A   Overcast